Port Huron, MI

1:27 PM EST on November 20, 2017 (GMT -0500)
Saint Clair County International

Weather History for KPHN - January, 2014

Change the Weather History Date:

Wednesday, January 29, 2014

  Actual Average (KMTC) Record (KMTC)
Temperature  
Mean Temperature 6 °F -  
Max Temperature 17 °F 30 °F 53 °F (2006)
Min Temperature -4 °F 19 °F -7 °F (1966)
Degree Days  
Heating Degree Days 58    
Moisture  
Dew Point -4 °F    
Average Humidity 62    
Maximum Humidity 78    
Minimum Humidity 49    
Precipitation  
Precipitation 0.00 in - - ()
Sea Level Pressure  
Sea Level Pressure 30.08 in    
Wind  
Wind Speed 9 mph (SW)    
Max Wind Speed 14 mph    
Max Gust Speed 23 mph    
Visibility 10 miles    
Events      
Averages and records for this station are not official NWS values.
T = Trace of Precipitation, MM = Missing Value Source: NWS Daily Summary

Daily Weather History Graph

Daily Weather History Graph

Search for Another Location

Airport or City:

Trip Planner

Search our weather history database for the weather conditions in past years. The results will help you decide how hot, cold, wet, or windy it might be!

Date:

Astronomy

Jan. 29, 2014 Rise Set
Actual Time 7:47 AM EST 5:39 PM EST
Civil Twilight 7:17 AM EST 6:09 PM EST
Nautical Twilight 6:43 AM EST 6:43 PM EST
Astronomical Twilight 6:10 AM EST 7:16 PM EST
Moon 6:23 AM EST (1/29) 4:37 PM EST (1/29)
Length of Visible Light 10h 51m
Length of Day
9h 51m
Waning Crescent, 2% of the Moon is Illuminated
Jan 29
Waning Crescent
Jan 30
New
Feb 6
First Quarter
Feb 14
Full
Feb 22
Last Quarter

Hourly Weather History & Observations

Time (EST) Temp. Windchill Dew Point Humidity Pressure Visibility Wind Dir Wind Speed Gust Speed Precip Events Conditions
12:18 AM -2.2 °F -18.0 °F -13.0 °F 60% 30.13 in 10.0 mi SSW 9.2 mph - N/A   Clear
12:38 AM -2.2 °F -18.9 °F -13.0 °F 60% 30.12 in 10.0 mi SSW 10.4 mph - N/A   Clear
12:58 AM -2.2 °F -15.6 °F -13.0 °F 60% 30.11 in 10.0 mi SW 6.9 mph - N/A   Clear
1:18 AM -2.2 °F -15.6 °F -13.0 °F 60% 30.10 in 10.0 mi SSW 6.9 mph - N/A   Clear
1:38 AM -2.2 °F -18.0 °F -13.0 °F 60% 30.10 in 10.0 mi SSW 9.2 mph - N/A   Clear
1:58 AM -2.2 °F -16.8 °F -11.2 °F 66% 30.10 in 10.0 mi SSW 8.1 mph - N/A   Clear
2:18 AM -2.2 °F -16.8 °F -11.2 °F 66% 30.09 in 10.0 mi SSW 8.1 mph 17.3 mph N/A   Clear
2:38 AM -2.2 °F -16.8 °F -11.2 °F 66% 30.08 in 10.0 mi SSW 8.1 mph - N/A   Clear
2:58 AM -4.0 °F -19.0 °F -11.2 °F 71% 30.08 in 10.0 mi SW 8.1 mph 16.1 mph N/A   Clear
3:18 AM -4.0 °F -19.0 °F -11.2 °F 71% 30.07 in 10.0 mi SW 8.1 mph - N/A   Clear
3:38 AM -2.2 °F -18.0 °F -11.2 °F 66% 30.07 in 10.0 mi SSW 9.2 mph - N/A   Clear
3:58 AM -2.2 °F -19.9 °F -11.2 °F 66% 30.07 in 10.0 mi SW 11.5 mph 19.6 mph N/A   Clear
4:18 AM -2.2 °F -16.8 °F -9.4 °F 71% 30.06 in 10.0 mi SSW 8.1 mph - N/A   Clear
4:38 AM -2.2 °F -18.0 °F -9.4 °F 71% 30.05 in 10.0 mi SSW 9.2 mph - N/A   Mostly Cloudy
4:58 AM -2.2 °F -16.8 °F -9.4 °F 71% 30.04 in 10.0 mi SSW 8.1 mph - N/A   Mostly Cloudy
5:18 AM -2.2 °F -18.0 °F -9.4 °F 71% 30.04 in 10.0 mi SSW 9.2 mph 16.1 mph N/A   Scattered Clouds
5:38 AM -2.2 °F -14.2 °F -9.4 °F 71% 30.05 in 10.0 mi SSW 5.8 mph - N/A   Clear
5:58 AM -2.2 °F -15.6 °F -9.4 °F 71% 30.04 in 10.0 mi SSW 6.9 mph - N/A   Clear
6:18 AM -2.2 °F -18.0 °F -7.6 °F 78% 30.03 in 10.0 mi SW 9.2 mph - N/A   Scattered Clouds
6:38 AM -0.4 °F -15.7 °F -7.6 °F 72% 30.04 in 10.0 mi SW 9.2 mph - N/A   Scattered Clouds
6:58 AM -0.4 °F -14.7 °F -7.6 °F 72% 30.04 in 10.0 mi SW 8.1 mph - N/A   Mostly Cloudy
7:18 AM -0.4 °F -13.4 °F -7.6 °F 72% 30.04 in 10.0 mi SW 6.9 mph - N/A   Mostly Cloudy
7:38 AM -0.4 °F -15.7 °F -5.8 °F 78% 30.04 in 10.0 mi SSW 9.2 mph - N/A   Scattered Clouds
7:58 AM -0.4 °F -14.7 °F -5.8 °F 78% 30.04 in 10.0 mi SSW 8.1 mph - N/A   Clear
8:18 AM -0.4 °F -15.7 °F -5.8 °F 78% 30.04 in 10.0 mi SSW 9.2 mph - N/A   Scattered Clouds
8:38 AM 1.4 °F -13.5 °F -5.8 °F 72% 30.04 in 10.0 mi SSW 9.2 mph - N/A   Mostly Cloudy
8:58 AM 1.4 °F -15.3 °F -5.8 °F 72% 30.04 in 10.0 mi SSW 11.5 mph 16.1 mph N/A   Overcast
9:18 AM 3.2 °F -12.2 °F -4.0 °F 72% 30.04 in 10.0 mi SSW 10.4 mph 17.3 mph N/A   Overcast
9:38 AM 3.2 °F -12.2 °F -4.0 °F 72% 30.04 in 10.0 mi SW 10.4 mph 16.1 mph N/A   Overcast
9:58 AM 5.0 °F -9.1 °F -4.0 °F 66% 30.04 in 10.0 mi SSW 9.2 mph 18.4 mph N/A   Overcast
10:18 AM 5.0 °F -10.0 °F -4.0 °F 66% 30.05 in 10.0 mi SW 10.4 mph - N/A   Mostly Cloudy
10:38 AM 6.8 °F -6.9 °F -2.2 °F 67% 30.05 in 10.0 mi SW 9.2 mph 17.3 mph N/A   Mostly Cloudy
10:58 AM 8.6 °F -5.5 °F -2.2 °F 62% 30.05 in 10.0 mi SSW 10.4 mph 16.1 mph N/A   Overcast
11:18 AM 10.4 °F -2.4 °F -0.4 °F 62% 30.05 in 10.0 mi WSW 9.2 mph 17.3 mph N/A   Overcast
11:38 AM 12.2 °F -1.8 °F -0.4 °F 57% 30.05 in 10.0 mi WSW 11.5 mph 23.0 mph N/A   Overcast
11:58 AM 12.2 °F -3.1 °F 1.4 °F 62% 30.05 in 10.0 mi WSW 13.8 mph 21.9 mph N/A   Mostly Cloudy
12:18 PM 14.0 °F -0.2 °F 1.4 °F 57% 30.04 in 10.0 mi West 12.7 mph 23.0 mph N/A   Scattered Clouds
12:38 PM 14.0 °F 2.9 °F 1.4 °F 57% 30.04 in 10.0 mi WSW 8.1 mph 18.4 mph N/A   Scattered Clouds
12:58 PM 14.0 °F 0.5 °F 1.4 °F 57% 30.04 in 10.0 mi WSW 11.5 mph 20.7 mph N/A   Mostly Cloudy
1:18 PM 15.8 °F 6.1 °F 1.4 °F 53% 30.04 in 10.0 mi West 6.9 mph 19.6 mph N/A   Scattered Clouds
1:38 PM 15.8 °F 2.1 °F 1.4 °F 53% 30.03 in 10.0 mi SW 12.7 mph 19.6 mph N/A   Scattered Clouds
1:58 PM 17.6 °F 3.7 °F 1.4 °F 49% 30.03 in 10.0 mi WSW 13.8 mph 21.9 mph N/A   Scattered Clouds
2:18 PM 17.6 °F 5.0 °F 1.4 °F 49% 30.04 in 10.0 mi WSW 11.5 mph 19.6 mph N/A   Clear
2:38 PM 17.6 °F 4.3 °F 1.4 °F 49% 30.04 in 10.0 mi WSW 12.7 mph 17.3 mph N/A   Scattered Clouds
2:58 PM 17.6 °F 5.0 °F 1.4 °F 49% 30.05 in 10.0 mi WSW 11.5 mph 19.6 mph N/A   Scattered Clouds
3:18 PM 17.6 °F 5.7 °F 1.4 °F 49% 30.05 in 10.0 mi SW 10.4 mph 16.1 mph N/A   Clear
3:38 PM 17.6 °F 4.3 °F 1.4 °F 49% 30.06 in 10.0 mi West 12.7 mph 19.6 mph N/A   Clear
3:58 PM 17.6 °F 6.4 °F 1.4 °F 49% 30.07 in 10.0 mi SW 9.2 mph 16.1 mph N/A   Clear
4:18 PM 17.6 °F 5.7 °F 1.4 °F 49% 30.08 in 10.0 mi SW 10.4 mph 16.1 mph N/A   Clear
4:38 PM 17.6 °F 5.7 °F 1.4 °F 49% 30.09 in 10.0 mi WSW 10.4 mph 20.7 mph N/A   Clear
4:58 PM 17.6 °F 6.4 °F 1.4 °F 49% 30.09 in 10.0 mi SW 9.2 mph 17.3 mph N/A   Clear
5:18 PM 17.6 °F 7.3 °F 3.2 °F 53% 30.10 in 10.0 mi SW 8.1 mph 16.1 mph N/A   Clear
5:38 PM 15.8 °F 6.1 °F 3.2 °F 58% 30.11 in 10.0 mi WSW 6.9 mph - N/A   Clear
5:58 PM 15.8 °F 6.1 °F 3.2 °F 58% 30.11 in 10.0 mi SW 6.9 mph - N/A   Clear
6:18 PM 15.8 °F 7.2 °F 3.2 °F 58% 30.11 in 10.0 mi SW 5.8 mph - N/A   Clear
6:38 PM 15.8 °F 6.1 °F 3.2 °F 58% 30.12 in 10.0 mi SW 6.9 mph - N/A   Clear
6:58 PM 15.8 °F 6.1 °F 3.2 °F 58% 30.13 in 10.0 mi SW 6.9 mph - N/A   Clear
7:18 PM 14.0 °F 3.9 °F 1.4 °F 57% 30.14 in 10.0 mi SW 6.9 mph - N/A   Clear
7:38 PM 14.0 °F 5.1 °F 1.4 °F 57% 30.14 in 10.0 mi SSW 5.8 mph - N/A   Clear
7:58 PM 14.0 °F 5.1 °F 1.4 °F 57% 30.14 in 10.0 mi SW 5.8 mph - N/A   Clear
8:18 PM 14.0 °F 2.0 °F -0.4 °F 53% 30.15 in 10.0 mi SW 9.2 mph - N/A   Clear
8:38 PM 12.2 °F -0.2 °F -0.4 °F 57% 30.15 in 10.0 mi SSW 9.2 mph - N/A   Clear
8:58 PM 12.2 °F 0.7 °F -0.4 °F 57% 30.16 in 10.0 mi SW 8.1 mph - N/A   Clear
9:18 PM 12.2 °F 1.7 °F -2.2 °F 53% 30.16 in 10.0 mi SSW 6.9 mph - N/A   Clear
9:38 PM 12.2 °F 1.7 °F -2.2 °F 53% 30.16 in 10.0 mi SSW 6.9 mph - N/A   Clear
9:58 PM 10.4 °F -0.4 °F -4.0 °F 52% 30.16 in 10.0 mi SSW 6.9 mph - N/A   Clear
10:18 PM 10.4 °F -1.5 °F -2.2 °F 57% 30.16 in 10.0 mi SSW 8.1 mph - N/A   Clear
10:38 PM 10.4 °F -1.5 °F -2.2 °F 57% 30.15 in 10.0 mi SSW 8.1 mph - N/A   Clear
10:58 PM 8.6 °F -1.3 °F -2.2 °F 62% 30.15 in 10.0 mi SSW 5.8 mph - N/A   Clear
11:18 PM 6.8 °F -4.8 °F -4.0 °F 61% 30.16 in 10.0 mi South 6.9 mph - N/A   Clear
11:38 PM 6.8 °F -5.9 °F -2.2 °F 67% 30.15 in 10.0 mi SSW 8.1 mph - N/A   Clear
11:58 PM 8.6 °F -3.7 °F -0.4 °F 67% 30.15 in 10.0 mi SSW 8.1 mph - N/A   Clear